Marysville, OH

10:27 AM EDT on August 20, 2017 (GMT -0400)
Marysville

Weather History for KMRT - December, 2013

Change the Weather History Date:

Thursday, December 19, 2013

  Actual Average (KDLZ) Record (KDLZ)
Temperature  
Mean Temperature 35 °F -  
Max Temperature 43 °F 35 °F 62 °F (1967)
Min Temperature 28 °F 20 °F -14 °F (1989)
Degree Days  
Heating Degree Days 30    
Moisture  
Dew Point 27 °F    
Average Humidity 63    
Maximum Humidity 73    
Minimum Humidity 53    
Precipitation  
Precipitation 0.00 in - - ()
Sea Level Pressure  
Sea Level Pressure 30.01 in    
Wind  
Wind Speed 10 mph (SSW)    
Max Wind Speed 14 mph    
Max Gust Speed 16 mph    
Visibility 10 miles    
Events      
Averages and records for this station are not official NWS values.
T = Trace of Precipitation, MM = Missing Value Source: NWS Daily Summary

Daily Weather History Graph

Daily Weather History Graph

Search for Another Location

Airport or City:

Trip Planner

Search our weather history database for the weather conditions in past years. The results will help you decide how hot, cold, wet, or windy it might be!

Date:

Astronomy

Dec. 19, 2013 Rise Set
Actual Time 7:51 AM EST 5:09 PM EST
Civil Twilight 7:20 AM EST 5:40 PM EST
Nautical Twilight 6:46 AM EST 6:14 PM EST
Astronomical Twilight 6:13 AM EST 6:47 PM EST
Moon 7:34 PM EST (12/19) 9:09 AM EST (12/19)
Length of Visible Light 10h 19m
Length of Day
9h 18m
Waning Gibbous, 95% of the Moon is Illuminated
Dec 19
Waning Gibbous
Dec 25
Last Quarter
Jan 1
New
Jan 7
First Quarter
Jan 15
Full

Hourly Weather History & Observations

Time (EST) Temp. Windchill Dew Point Humidity Pressure Visibility Wind Dir Wind Speed Gust Speed Precip Events Conditions
12:15 AM 28.0 °F 17.5 °F 16.9 °F 63% 30.01 in 10.0 mi SSW 12.7 mph - N/A   Clear
12:34 AM 28.4 °F 17.5 °F 16.9 °F 62% 30.00 in 10.0 mi SSW 13.8 mph - N/A   Clear
12:54 AM 28.2 °F 18.3 °F 16.9 °F 63% 30.00 in 10.0 mi SSW 11.5 mph - N/A   Clear
1:15 AM 28.4 °F 19.7 °F 17.1 °F 63% 30.00 in 10.0 mi SSW 9.2 mph - N/A   Clear
1:34 AM 28.9 °F 21.1 °F 17.1 °F 61% 29.99 in 10.0 mi SSW 8.1 mph - N/A   Clear
1:54 AM 29.3 °F 20.8 °F 17.4 °F 61% 29.99 in 10.0 mi SSW 9.2 mph - N/A   Clear
2:15 AM 29.8 °F 21.5 °F 17.6 °F 60% 29.99 in 10.0 mi South 9.2 mph - N/A   Clear
2:34 AM 30.2 °F 22.6 °F 17.6 °F 60% 29.99 in 10.0 mi South 8.1 mph - N/A   Clear
2:54 AM 30.9 °F 25.2 °F 17.8 °F 58% 29.99 in 10.0 mi South 5.8 mph - N/A   Clear
3:14 AM 31.6 °F 26.0 °F 18.1 °F 57% 30.00 in 10.0 mi South 5.8 mph - N/A   Clear
3:34 AM 34.3 °F 27.0 °F 18.9 °F 53% 30.00 in 10.0 mi SSW 9.2 mph - N/A   Clear
3:54 AM 34.5 °F 27.3 °F 19.4 °F 54% 30.00 in 10.0 mi SSW 9.2 mph - N/A   Clear
4:14 AM 34.7 °F 28.1 °F 19.9 °F 55% 30.00 in 10.0 mi SSW 8.1 mph - N/A   Clear
4:34 AM 34.9 °F 29.0 °F 20.8 °F 57% 30.00 in 10.0 mi SSW 6.9 mph - N/A   Clear
4:54 AM 36.0 °F 29.0 °F 21.9 °F 57% 30.00 in 10.0 mi SSW 9.2 mph 16.1 mph N/A   Clear
5:14 AM 35.6 °F 28.6 °F 22.1 °F 58% 30.00 in 10.0 mi SSW 9.2 mph - N/A   Clear
5:34 AM 35.6 °F 28.6 °F 22.1 °F 58% 30.00 in 10.0 mi SSW 9.2 mph - N/A   Clear
5:54 AM 35.6 °F 28.6 °F 22.5 °F 59% 30.00 in 10.0 mi SSW 9.2 mph - N/A   Clear
6:14 AM 35.2 °F 28.1 °F 22.3 °F 59% 30.00 in 10.0 mi SSW 9.2 mph - N/A   Clear
6:34 AM 35.8 °F 28.3 °F 22.6 °F 59% 30.00 in 10.0 mi SSW 10.4 mph - N/A   Clear
6:54 AM 35.2 °F 28.1 °F 22.6 °F 60% 30.01 in 10.0 mi SW 9.2 mph - N/A   Clear
7:14 AM 35.2 °F 27.1 °F 23.0 °F 61% 30.01 in 10.0 mi SW 11.5 mph - N/A   Clear
7:34 AM 35.6 °F 27.5 °F 23.5 °F 62% 30.02 in 10.0 mi SW 11.5 mph - N/A   Clear
7:54 AM 35.2 °F 27.1 °F 23.9 °F 63% 30.01 in 10.0 mi SW 11.5 mph - N/A   Clear
8:14 AM 35.2 °F 26.6 °F 24.4 °F 65% 30.02 in 10.0 mi SW 12.7 mph - N/A   Clear
8:34 AM 36.0 °F 27.5 °F 24.8 °F 64% 30.02 in 10.0 mi SW 12.7 mph - N/A   Clear
8:55 AM 36.7 °F 28.4 °F 24.8 °F 62% 30.03 in 10.0 mi SW 12.7 mph - N/A   Clear
9:14 AM 37.6 °F 30.0 °F 25.2 °F 61% 30.03 in 10.0 mi SW 11.5 mph - N/A   Clear
9:34 AM 38.3 °F 30.9 °F 25.3 °F 60% 30.04 in 10.0 mi SW 11.5 mph - N/A   Clear
9:55 AM 39.4 °F 32.3 °F 25.5 °F 58% 30.05 in 10.0 mi WSW 11.5 mph - N/A   Clear
10:14 AM 40.3 °F 33.9 °F 25.7 °F 56% 30.05 in 10.0 mi SW 10.4 mph - N/A   Clear
10:34 AM 41.0 °F 34.7 °F 26.4 °F 56% 30.05 in 10.0 mi SW 10.4 mph 16.1 mph N/A   Clear
10:55 AM 41.4 °F 34.7 °F 27.1 °F 57% 30.05 in 10.0 mi SW 11.5 mph - N/A   Clear
11:14 AM 41.4 °F 35.2 °F 27.7 °F 58% 30.05 in 10.0 mi SW 10.4 mph - N/A   Clear
11:34 AM 41.0 °F 35.2 °F 28.4 °F 61% 30.05 in 10.0 mi SW 9.2 mph - N/A   Clear
11:54 AM 41.0 °F 35.8 °F 28.6 °F 61% 30.05 in 10.0 mi SW 8.1 mph - N/A   Clear
12:14 PM 41.2 °F 35.5 °F 28.9 °F 62% 30.04 in 10.0 mi SW 9.2 mph - N/A   Clear
12:35 PM 41.9 °F 36.9 °F 29.3 °F 61% 30.03 in 10.0 mi SW 8.1 mph - N/A   Clear
12:54 PM 42.1 °F 36.6 °F 29.7 °F 61% 30.02 in 10.0 mi SW 9.2 mph - N/A   Clear
1:14 PM 42.8 °F 38.0 °F 30.0 °F 61% 30.03 in 10.0 mi SW 8.1 mph - N/A   Clear
1:34 PM 42.8 °F 38.0 °F 29.8 °F 60% 30.02 in 10.0 mi SW 8.1 mph - N/A   Scattered Clouds
1:54 PM 42.6 °F 37.8 °F 30.2 °F 61% 30.02 in 10.0 mi SW 8.1 mph - N/A   Scattered Clouds
2:14 PM 42.6 °F 37.8 °F 30.7 °F 63% 30.02 in 10.0 mi SW 8.1 mph - N/A   Clear
2:35 PM 42.4 °F 37.0 °F 30.9 °F 64% 30.02 in 10.0 mi SW 9.2 mph - N/A   Clear
2:54 PM 42.8 °F 38.0 °F 30.9 °F 63% 30.02 in 10.0 mi SSW 8.1 mph - N/A   Clear
3:14 PM 41.4 °F 34.7 °F 30.6 °F 65% 30.01 in 10.0 mi SSW 11.5 mph - N/A   Clear
3:34 PM 41.4 °F 35.2 °F 30.7 °F 66% 30.01 in 10.0 mi SSW 10.4 mph - N/A   Clear
3:54 PM 41.2 °F 35.0 °F 30.7 °F 66% 30.01 in 10.0 mi SSW 10.4 mph - N/A   Clear
4:14 PM 40.6 °F 34.8 °F 31.1 °F 69% 30.01 in 10.0 mi SSW 9.2 mph - N/A   Clear
4:34 PM 40.8 °F 35.0 °F 31.6 °F 70% 30.01 in 10.0 mi SSW 9.2 mph - N/A   Clear
4:54 PM 40.6 °F 36.0 °F 32.0 °F 71% 30.01 in 10.0 mi SW 6.9 mph - N/A   Clear
5:14 PM 41.4 °F 36.2 °F 32.0 °F 69% 30.01 in 10.0 mi SSW 8.1 mph - N/A   Scattered Clouds
5:34 PM 41.9 °F 36.3 °F 32.0 °F 68% 30.00 in 10.0 mi South 9.2 mph - N/A   Mostly Cloudy
5:55 PM 41.9 °F 36.9 °F 32.0 °F 68% 30.01 in 10.0 mi SSW 8.1 mph - N/A   Overcast
6:14 PM 41.9 °F 36.3 °F 32.0 °F 68% 30.01 in 10.0 mi SSW 9.2 mph - N/A   Overcast
6:34 PM 41.7 °F 36.7 °F 32.0 °F 68% 30.00 in 10.0 mi SSW 8.1 mph - N/A   Overcast
6:54 PM 41.5 °F 36.4 °F 32.4 °F 70% 30.00 in 10.0 mi SSW 8.1 mph - N/A   Overcast
7:14 PM 42.1 °F 35.7 °F 32.2 °F 68% 30.00 in 10.0 mi SSW 11.5 mph - N/A   Overcast
7:35 PM 42.3 °F 35.5 °F 32.4 °F 68% 30.00 in 10.0 mi SSW 12.7 mph - N/A   Overcast
7:54 PM 42.3 °F 35.5 °F 32.4 °F 68% 29.99 in 10.0 mi SSW 12.7 mph - N/A   Overcast
8:14 PM 42.1 °F 35.7 °F 32.4 °F 68% 29.99 in 10.0 mi SSW 11.5 mph - N/A   Overcast
8:34 PM 41.0 °F 34.7 °F 32.2 °F 71% 29.99 in 10.0 mi SSW 10.4 mph - N/A   Overcast
8:54 PM 41.4 °F 35.7 °F 32.2 °F 70% 29.98 in 10.0 mi SW 9.2 mph - N/A   Mostly Cloudy
9:14 PM 42.1 °F 35.7 °F 32.0 °F 67% 29.98 in 10.0 mi SSW 11.5 mph - N/A   Mostly Cloudy
9:34 PM 41.9 °F 35.4 °F 32.0 °F 68% 29.98 in 10.0 mi SW 11.5 mph - N/A   Mostly Cloudy
9:54 PM 41.7 °F 34.8 °F 32.0 °F 68% 29.97 in 10.0 mi SSW 12.7 mph - N/A   Overcast
10:14 PM 41.7 °F 34.4 °F 32.2 °F 69% 29.97 in 10.0 mi SSW 13.8 mph - N/A   Scattered Clouds
10:34 PM 41.5 °F 36.4 °F 32.7 °F 71% 29.96 in 10.0 mi SW 8.1 mph - N/A   Clear
10:54 PM 41.0 °F 35.2 °F 32.7 °F 72% 29.96 in 10.0 mi SSW 9.2 mph - N/A   Clear
11:14 PM 41.2 °F 35.5 °F 32.9 °F 72% 29.95 in 10.0 mi SSW 9.2 mph - N/A   Clear
11:35 PM 41.0 °F 35.2 °F 32.9 °F 73% 29.96 in 10.0 mi SW 9.2 mph - N/A   Scattered Clouds
11:54 PM 41.2 °F 35.5 °F 32.7 °F 72% 29.95 in 10.0 mi SSW 9.2 mph - N/A   Mostly Cloudy